"Pseudo-MPEC" for P10GvJF

Created 2018 Feb 25 16:18:05 UT using Find_Orb

Click here for an explanation of pseudo-MPECs

 
 Astrometry: 
     P10GvJF  C2018 02 11.'Astrometryc(Qm.m'+ZT+eicch#$TVRqtn;TA^bIdL+o?mcxwUF51
     P10GvJF  C2018 02 11^xG%f%^t[jk0_`dZDM]cSh2L5uM4M\riZsI!x-O4QAD6'.q5.iBwF51
     P10GvJF  C2018 02 11Uo2+vXXr!lF$GDewX=rVSSe$YT3wdXFPcBQuT#v#!HHfyZ)q77$VF51
     P10GvJF  C2018 02 23.32795 11 45 36.82 +03 03 39.4          20.9 GUNEOCPG96
     P10GvJF  C2018 02 23.33309 11 45 36.32 +03 03 54.6          21.1 GUNEOCPG96
     P10GvJF  C2018 02 23.33824 11 45 35.82 +03 04 10.0          21.0 GUNEOCPG96
     P10GvJF  C2018 02 23.34339 11 45 35.40 +03 04 25.4          20.7 GUNEOCPG96
     P10GvJF  C2018 02 23.47367 11 45 23.16 +03 10 55.8          20.4 GUNEOCPI52
     P10GvJF  C2018 02 23.47615 11 45 22.93 +03 11 03.6          20.7 GUNEOCPI52
     P10GvJF  C2018 02 23.47864 11 45 22.70 +03 11 10.5          20.5 GUNEOCPI52
     P10GvJF  C2018 02 23.48113 11 45 22.47 +03 11 18.1          20.7 GUNEOCPI52
     P10GvJF  C2018 02 23.99595 11 44 37.45 +03 37 08.1          20.8 VSNEOCP033
     P10GvJF  C2018 02 23.99970 11 44 37.06 +03 37 19.8          21.0 VSNEOCP033
     P10GvJF  C2018 02 24.00346 11 44 36.75 +03 37 31.2          20.6 VSNEOCP033
     P10GvJF  C2018 02 24.00721 11 44 36.39 +03 37 42.3          20.6 VSNEOCP033
     P10GvJF  C2018 02 24.01097 11 44 36.00 +03 37 54.1          20.8 VSNEOCP033
     P10GvJF  C2018 02 24.06976 11 44 30.40 +03 40 53.0          20.7 VSNEOCP033
     P10GvJF  C2018 02 24.07351 11 44 30.04 +03 41 03.1          20.7 VSNEOCP033
     P10GvJF  C2018 02 24.07727 11 44 29.69 +03 41 14.9          21.1 VSNEOCP033
     P10GvJF KC2018 02 24o8d\:;FLaQi)(]_o8redacted;cJ:ej9ytdjeh4equ=!hHEK*ccj291
     P10GvJF KC2018 02 242!-\;rMTK!rf:A'qpbiK*kpUv4@FsM)4y0BJ1:fw/]Q*#F%07v@g291
     P10GvJF KC2018 02 24d8-d2ZGF3WC8h7$?F;KPZN*`N0K?`k-Jsee):4;O6bm_\PY!wtLM291
     P10GvJF  C2018 02 25.11935 11 42 53.64 +04 34 35.1          19.6 VSNEOCP033
     P10GvJF  C2018 02 25.12310 11 42 53.26 +04 34 47.2          19.3 VSNEOCP033
     P10GvJF  C2018 02 25.12686 11 42 52.90 +04 34 58.5          19.3 VSNEOCP033
     P10GvJF KC2018 02 25.T2o\Bt(ec,H#t,04I$M#:#6;1B(?P:h36bir'R$*/xHpc\?AcB[291
     P10GvJF KC2018 02 25fYPADL#=#q`j-3%*?]4(56xxL=?5:TUM+vKWyB4J($W+76i0sW9c291
     P10GvJF KC2018 02 25m7a?/[.#5cPt:URmwfEOe6@.Gme`V2wr+,S9/BV9=pnodF5NEOCP291
     P10GvJF  C2018 02 25.32615 11 42 34.79 +04 45 22.6          20.8 GUNEOCPI52
     P10GvJF  C2018 02 25.32739 11 42 34.68 +04 45 26.3          20.1 GUNEOCPI52
     P10GvJF  C2018 02 25.32863 11 42 34.56 +04 45 30.3          20.2 GUNEOCPI52
     P10GvJF  C2018 02 25.32989 11 42 34.47 +04 45 34.0          20.4 GUNEOCPI52

Station data:
(033) Karl Schwarzschild Observatory, Tautenburg  (N50.980137 E11.711240)
   Germany. 1.3-m Schmidt.
(291) LPL/Spacewatch II  (N31.961626 W111.599100)  US/Arizona.  Observers J.
   V. Scotti, R. S. McMillan. 1.8-m f/2.7 reflector + CCD.
(F51) Pan-STARRS 1, Haleakala  (N20.707234 W156.255910)  US/Hawaii.
   Observers N. Primak, A. Schultz, S. Watters, J. Thiel, T. Goggia. Measurer
   PS1 Science Consortium. 1.8-m Ritchey-Chrétien + CCD.
(G96) Mt. Lemmon Survey  (N32.442751 W110.788720)  US/Arizona.  Observers E.
   J. Christensen, A. R. Gibbs, A. D. Grauer, R. E. Hill, J. A. Johnson, R.
   A. Kowalski, S. M. Larson, F. C. Shelly. 1.5-m reflector + CCD.
(I52) Steward Observatory, Mt. Lemmon Station  (N32.442544 W110.788920)
   US/Arizona.

Orbital elements:  P10GvJF
   Perihelion 2018 Sep 9.527221 +/- 0.0523 TT = 12:39:11 (JD 2458371.027221)
Epoch 2018 Feb 25.0 TT = JDT 2458174.5   Earth MOID: 0.2474   Ve: 0.0368
M 194.94228 +/- 0.09                (J2000 ecliptic)          AutoNEOCP
n   0.83987202 +/- 0.000321         Peri.  173.64263 +/- 0.047
a   1.11256989 +/- 0.000284         Node   160.43468 +/- 0.007
e   0.3178821 +/- 0.000326          Incl.   26.32128 +/- 0.051
P   1.17/428.63d           H 20.8   G  0.15   U  7.3  
q 0.75890372 +/- 0.000188    Q 1.46623606 +/- 0.000728
From 32 observations 2018 Feb. 11-25; mean residual 0".34
Residuals in arcseconds: 
180211 F51  .00   .07+    180223 033  .00   .02-    180225 033  .09+  .27-    
180211 F51  .03+  .04+    180223 033  .53-  .30+    180225 033  .11-  .21+    
180211 F51  .03-  .10-    180224 033  .15+  .28+    180225 033  .01+  .15-    
180223 G96  .15+  .06+    180224 033  .07+  .00     180225 291  .52+  .19+    
180223 G96  .13-  .13-    180224 033  .44-  .38+    180225 291  .01+  .31+    
180223 G96  .39-  .15-    180224 033  .85-  .72+    180225 291  .39+  .33+    
180223 G96  .55+  .17-    180224 033  .92-  .57-    180225 I52  .44-  .21-    
180223 I52  .21+  .19-    180224 033  .83-  .20-    180225 I52  .22-  .37-    
180223 I52  .22+  .18+    180224 291  .37+  .59+    180225 I52  .14-  .23-    
180223 I52  .25+  .39-    180224 291  .07+  .20+    180225 I52  .41+  .46-    
180223 I52  .27+  .26-    180224 291  .08+  .39+    

Ephemerides (geocentric):
Date (UTC) HH   RA              Dec         delta   r     elong  mag " sig PA
---- -- -- --  ------------   ------------  ------ ------ -----  --- ---- ---
2018 02 25 16  11 42 02.157   +05 03 14.68  .48369 1.4588 162.6 20.7  .16  67
2018 02 25 17  11 41 58.164   +05 05 25.25  .48353 1.4588 162.7 20.7  .16  67
2018 02 25 18  11 41 54.165   +05 07 35.91  .48337 1.4587 162.8 20.7  .17  67
2018 02 25 19  11 41 50.159   +05 09 46.66  .48321 1.4587 162.8 20.7  .18  67
2018 02 25 20  11 41 46.148   +05 11 57.52  .48306 1.4587 162.9 20.7  .18  66
2018 02 25 21  11 41 42.131   +05 14 08.46  .48290 1.4586 163.0 20.7  .19  66
2018 02 25 22  11 41 38.107   +05 16 19.50  .48274 1.4586 163.0 20.7  .19  66
2018 02 25 23  11 41 34.078   +05 18 30.63  .48259 1.4585 163.1 20.7  .20  65
2018 02 26 00  11 41 30.043   +05 20 41.85  .48243 1.4585 163.2 20.7  .21  65
2018 02 26 01  11 41 26.002   +05 22 53.17  .48228 1.4585 163.2 20.7  .21  65
2018 02 26 02  11 41 21.955   +05 25 04.58  .48212 1.4584 163.3 20.7  .22  65
2018 02 26 03  11 41 17.903   +05 27 16.08  .48197 1.4584 163.4 20.7  .23  65
2018 02 26 04  11 41 13.844   +05 29 27.68  .48181 1.4584 163.4 20.7  .23  64
2018 02 26 05  11 41 09.779   +05 31 39.36  .48166 1.4583 163.5 20.7  .24  64
2018 02 26 06  11 41 05.709   +05 33 51.14  .48151 1.4583 163.6 20.7  .25  64
2018 02 26 07  11 41 01.633   +05 36 03.00  .48135 1.4583 163.6 20.7  .25  64
2018 02 26 08  11 40 57.551   +05 38 14.96  .48120 1.4582 163.7 20.7  .26  63
2018 02 26 09  11 40 53.463   +05 40 27.01  .48105 1.4582 163.8 20.7  .27  63
2018 02 26 10  11 40 49.369   +05 42 39.14  .48090 1.4582 163.8 20.7  .27  63
2018 02 26 11  11 40 45.269   +05 44 51.37  .48075 1.4581 163.9 20.7  .28  63
2018 02 26 12  11 40 41.164   +05 47 03.68  .48060 1.4581 164.0 20.7  .29  62
2018 02 26 13  11 40 37.052   +05 49 16.09  .48045 1.4581 164.0 20.7  .29  62
2018 02 26 14  11 40 32.935   +05 51 28.58  .48030 1.4580 164.1 20.7  .30  62
2018 02 26 15  11 40 28.813   +05 53 41.16  .48015 1.4580 164.2 20.7  .31  62
2018 02 26 16  11 40 24.684   +05 55 53.82  .48001 1.4580 164.2 20.7  .31  62
2018 02 26 17  11 40 20.549   +05 58 06.58  .47986 1.4579 164.3 20.7  .32  61
2018 02 26 18  11 40 16.409   +06 00 19.42  .47971 1.4579 164.3 20.7  .33  61
2018 02 26 19  11 40 12.263   +06 02 32.35  .47957 1.4578 164.4 20.7  .33  61
2018 02 26 20  11 40 08.111   +06 04 45.36  .47942 1.4578 164.5 20.7  .34  61
2018 02 26 21  11 40 03.954   +06 06 58.46  .47928 1.4578 164.5 20.7  .35  61
2018 02 26 22  11 39 59.791   +06 09 11.64  .47913 1.4577 164.6 20.7  .35  60
2018 02 26 23  11 39 55.622   +06 11 24.91  .47899 1.4577 164.7 20.6  .36  60
2018 02 27 00  11 39 51.447   +06 13 38.27  .47884 1.4577 164.7 20.6  .37  60
2018 02 27 01  11 39 47.267   +06 15 51.70  .47870 1.4576 164.8 20.6  .38  60
2018 02 27 02  11 39 43.080   +06 18 05.23  .47856 1.4576 164.9 20.6  .38  60
2018 02 27 03  11 39 38.889   +06 20 18.83  .47842 1.4576 164.9 20.6  .39  59
2018 02 27 04  11 39 34.691   +06 22 32.52  .47827 1.4575 165.0 20.6  .40  59
2018 02 27 05  11 39 30.488   +06 24 46.29  .47813 1.4575 165.1 20.6  .40  59
2018 02 27 06  11 39 26.279   +06 27 00.15  .47799 1.4575 165.1 20.6  .41  59
2018 02 27 07  11 39 22.065   +06 29 14.08  .47785 1.4574 165.2 20.6  .42  59
2018 02 27 08  11 39 17.844   +06 31 28.10  .47771 1.4574 165.2 20.6  .43  58
2018 02 27 09  11 39 13.619   +06 33 42.20  .47757 1.4573 165.3 20.6  .43  58
2018 02 27 10  11 39 09.387   +06 35 56.38  .47744 1.4573 165.4 20.6  .44  58
2018 02 27 11  11 39 05.150   +06 38 10.64  .47730 1.4573 165.4 20.6  .45  58
2018 02 27 12  11 39 00.907   +06 40 24.98  .47716 1.4572 165.5 20.6  .46  58
2018 02 27 13  11 38 56.659   +06 42 39.40  .47702 1.4572 165.6 20.6  .46  57
2018 02 27 14  11 38 52.405   +06 44 53.90  .47689 1.4572 165.6 20.6  .47  57
2018 02 27 15  11 38 48.145   +06 47 08.48  .47675 1.4571 165.7 20.6  .48  57